Lady Elliot Island Observation History
Time Wind Speed Temp Pressure Rel. Hum Rain
05/09:30pm SSE 14-21 kts 19.8°c 1024.7 hPa 82% 2.6mm
05/09:00pm SE 13-19 kts 19.5°c 1025.0 hPa 85% 1.8mm
05/08:30pm SSE 14-18 kts 20.5°c 1024.7 hPa 77% 1.6mm
05/08:00pm SSE 15-21 kts 20.6°c 1024.5 hPa 80% 1.6mm
05/07:30pm SSE 14-19 kts 20.7°c 1024.4 hPa 79% 1.6mm
05/07:00pm SE 14-21 kts 21.2°c 1024.0 hPa 67% 1.6mm
05/06:30pm SE 16-22 kts 20.9°c 1023.8 hPa 67% 1.6mm
05/06:00pm SE 17-22 kts 20.8°c 1023.5 hPa 68% 1.6mm
05/05:30pm SSE 14-20 kts 20.6°c 1023.3 hPa 75% 1.6mm
05/05:00pm SE 14-23 kts 19.8°c 1023.1 hPa 80% 1.6mm
05/04:30pm SE 17-23 kts 19.4°c 1022.9 hPa 83% 1.6mm
05/04:00pm ESE 15-19 kts 20.7°c 1022.9 hPa 75% 1.4mm
05/03:30pm ESE 18-22 kts 20.4°c 1022.9 hPa 76% 1.4mm
05/03:00pm E 13-18 kts 19.9°c 1022.9 hPa 85% 1.4mm
05/02:30pm ESE 17-21 kts 20.5°c 1023.0 hPa 80% 1.4mm
05/02:00pm SE 10-14 kts 19.7°c 1023.3 hPa 86% 1.4mm
05/01:50pm SE 15-25 kts 19.0°c 1023.3 hPa 87% 1.4mm
05/01:30pm SE 12-16 kts 21.6°c 1023.5 hPa 77% 1.2mm
05/01:00pm SE 15-20 kts 21.4°c 1023.9 hPa 75% 1.0mm
05/12:30pm SE 17-25 kts 20.0°c 1024.2 hPa 79% 1.0mm
05/12:00pm ESE 15-20 kts 21.4°c 1024.4 hPa 74% 1.0mm
05/11:30am SE 19-27 kts 21.3°c 1024.9 hPa 80% 1.0mm
05/11:02am SE 15-25 kts 21.0°c 1025.2 hPa 85% 1.0mm
05/11:00am SE 13-25 kts 20.5°c 1025.2 hPa 84% 1.0mm
05/10:30am ESE 14-23 kts 19.6°c 1025.7 hPa 85% 0.8mm
05/10:05am E 15-25 kts 19.9°c 1025.9 hPa 83% 0.2mm
05/10:00am E 18-26 kts 19.5°c 1026.0 hPa 84% 0.2mm
05/09:54am ESE 18-26 kts 20.0°c 1026.0 hPa 83% 0.2mm
05/09:30am ESE 16-24 kts 19.5°c 1025.7 hPa 89% 0.2mm
05/09:12am SSE 17-34 kts 19.6°c 1025.6 hPa 88% 0.0mm
05/09:11am SSE 16-29 kts 19.9°c 1025.7 hPa 88% 0.0mm
05/09:10am SSE 15-26 kts 19.9°c 1025.7 hPa 88% 0.0mm
05/09:00am SSE 15-21 kts 19.9°c 1025.5 hPa 85% 11.6mm
05/08:30am SE 17-25 kts 19.9°c 1025.3 hPa 87% 11.6mm
05/08:00am SSE 17-26 kts 18.9°c 1024.9 hPa 91% 11.6mm
05/07:30am SSE 15-23 kts 19.4°c 1024.5 hPa 92% 11.6mm
05/07:00am SSE 17-23 kts 19.0°c 1024.2 hPa 89% 11.0mm
05/06:30am SE 17-24 kts 18.3°c 1024.3 hPa 93% 9.8mm
05/06:00am SE 16-23 kts 19.0°c 1023.9 hPa 92% 7.8mm
05/05:30am SE 15-22 kts 18.4°c 1023.7 hPa 93% 7.2mm
05/05:00am SSE 14-21 kts 18.6°c 1023.2 hPa 91% 5.4mm
05/04:30am SSE 17-24 kts 19.1°c 1023.2 hPa 88% 5.2mm
05/04:00am SE 17-24 kts 19.1°c 1023.1 hPa 88% 5.2mm
05/03:30am SSE 17-25 kts 18.7°c 1023.3 hPa 92% 5.2mm
05/03:00am SSE 17-24 kts 18.7°c 1023.5 hPa 88% 4.0mm
05/02:30am SE 17-22 kts 19.1°c 1023.7 hPa 87% 4.0mm
05/02:00am SSE 17-26 kts 18.7°c 1023.9 hPa 86% 4.0mm
05/01:30am SE 17-23 kts 19.1°c 1024.1 hPa 87% 4.0mm
05/01:00am SE 18-23 kts 19.1°c 1024.5 hPa 89% 4.0mm
05/12:30am ESE 23-29 kts 18.3°c 1024.9 hPa 93% 3.8mm
05/12:19am SE 18-28 kts 18.3°c 1025.1 hPa 90% 3.6mm
05/12:00am SSE 18-26 kts 19.0°c 1025.2 hPa 84% 3.4mm
Time Wind Speed Temp Pressure Rel. Hum Rain
04/11:30pm SE 21-30 kts 18.7°c 1025.3 hPa 88% 3.4mm
04/11:00pm SE 19-29 kts 18.6°c 1025.7 hPa 89% 3.0mm
04/10:40pm SE 15-26 kts 18.7°c 1025.8 hPa 90% 2.0mm
04/10:30pm SE 17-24 kts 18.0°c 1026.1 hPa 94% 2.0mm
04/10:18pm ESE 23-30 kts 18.6°c 1026.1 hPa 93% 1.2mm
04/10:00pm SSE 18-30 kts 19.1°c 1025.9 hPa 84% 0.0mm
04/09:51pm SSE 16-30 kts 20.2°c 1026.0 hPa 79% 0.0mm
04/09:30pm SSE 16-24 kts 19.8°c 1025.9 hPa 80% 0.0mm
04/09:00pm SSE 17-23 kts 19.4°c 1025.9 hPa 80% 0.0mm
04/08:38pm SSE 17-27 kts 20.6°c 1025.7 hPa 76% 0.0mm
04/08:30pm SE 19-25 kts 20.6°c 1025.6 hPa 76% 0.0mm
04/08:00pm SSE 20-26 kts 20.2°c 1025.7 hPa 75% 0.0mm
04/07:30pm SSE 19-26 kts 20.4°c 1025.4 hPa 78% 0.0mm
04/07:27pm SSE 19-29 kts 20.2°c 1025.5 hPa 78% 0.0mm
04/07:00pm SSE 20-27 kts 20.7°c 1025.3 hPa 70% 0.0mm
04/06:30pm SE 20-30 kts 21.0°c 1024.8 hPa 70% 0.0mm
04/06:00pm SSE 19-27 kts 20.3°c 1024.7 hPa 72% 0.0mm
04/05:30pm SE 22-28 kts 20.5°c 1024.5 hPa 74% 0.0mm
04/05:00pm SSE 19-27 kts 20.1°c 1024.0 hPa 76% 0.0mm
04/04:30pm SSE 20-27 kts 20.1°c 1023.7 hPa 77% 0.0mm
04/04:05pm SSE 19-29 kts 20.0°c 1023.7 hPa 79% 0.0mm
04/04:00pm SSE 19-27 kts 19.6°c 1023.6 hPa 80% 0.0mm
04/03:30pm SSE 17-25 kts 20.1°c 1023.5 hPa 83% 0.0mm
04/03:00pm SSE 19-26 kts 20.4°c 1023.5 hPa 83% 0.0mm
04/02:30pm SSE 18-25 kts 20.6°c 1023.3 hPa 84% 0.0mm
04/02:00pm SSE 18-26 kts 21.2°c 1023.6 hPa 81% 0.0mm
04/01:30pm SE 19-29 kts 21.8°c 1023.6 hPa 75% 0.0mm
04/01:00pm SE 18-24 kts 22.0°c 1023.6 hPa 76% 0.0mm
04/12:30pm SE 21-29 kts 21.6°c 1023.8 hPa 75% 0.0mm
04/12:23pm SSE 18-29 kts 22.2°c 1024.0 hPa 72% 0.0mm
04/12:00pm SSE 17-26 kts 21.9°c 1024.3 hPa 71% 0.0mm
04/11:38am SSE 19-29 kts 22.2°c 1024.4 hPa 67% 0.0mm
04/11:30am SE 21-29 kts 22.3°c 1024.4 hPa 71% 0.0mm
04/11:00am SSE 17-23 kts 21.5°c 1024.7 hPa 78% 0.0mm
04/10:30am SSE 16-21 kts 21.4°c 1024.6 hPa 80% 0.0mm
04/10:00am SSE 15-20 kts 21.5°c 1024.6 hPa 76% 0.0mm
04/09:30am S 15-21 kts 20.8°c 1024.5 hPa 78% 0.0mm
04/09:00am SSE 15-20 kts 20.7°c 1024.4 hPa 76% 0.0mm
04/08:30am SSE 16-22 kts 21.4°c 1024.2 hPa 73% 0.0mm
04/08:00am SE 20-25 kts 21.9°c 1024.0 hPa 68% 0.0mm
04/07:30am SE 19-27 kts 21.5°c 1023.6 hPa 58% 0.0mm
04/07:00am SE 20-26 kts 21.3°c 1023.2 hPa 64% 0.0mm
04/06:30am SE 19-27 kts 21.2°c 1022.8 hPa 63% 0.0mm
04/06:00am SE 19-25 kts 21.0°c 1022.6 hPa 66% 0.0mm
04/05:30am SE 19-26 kts 21.0°c 1022.2 hPa 62% 0.0mm
04/05:00am SSE 17-26 kts 20.4°c 1021.8 hPa 71% 0.0mm
04/04:55am SSE 16-26 kts 20.2°c 1021.7 hPa 72% 0.0mm
04/04:30am SSE 15-20 kts 19.5°c 1021.6 hPa 76% 0.0mm
04/04:00am SSE 14-20 kts 19.4°c 1021.8 hPa 76% 0.0mm
04/03:30am S 13-18 kts 19.3°c 1022.0 hPa 75% 0.0mm
04/03:00am SSE 15-21 kts 19.3°c 1022.0 hPa 71% 0.0mm
04/02:30am SSE 16-22 kts 19.5°c 1022.0 hPa 67% 0.0mm
04/02:00am SSE 16-21 kts 19.3°c 1022.2 hPa 66% 0.0mm
04/01:30am SSE 19-24 kts 19.2°c 1022.5 hPa 65% 0.0mm
04/01:00am SSE 16-23 kts 19.1°c 1022.5 hPa 68% 0.0mm
04/12:30am SSE 16-22 kts 18.8°c 1022.7 hPa 66% 0.0mm
04/12:00am SSE 15-22 kts 18.6°c 1023.0 hPa 65% 0.0mm
Time Wind Speed Temp Pressure Rel. Hum Rain
03/11:30pm SSE 14-19 kts 18.8°c 1023.1 hPa 65% 0.0mm
03/11:00pm SSE 12-18 kts 18.7°c 1023.4 hPa 64% 0.0mm
03/10:30pm SSE 11-17 kts 18.6°c 1023.1 hPa 60% 0.0mm
03/10:00pm SSE 9-12 kts 18.4°c 1022.9 hPa 66% 0.0mm
03/09:30pm SSE 8-12 kts 18.3°c 1022.7 hPa 68% 0.0mm
03/09:00pm SE 8-11 kts 18.2°c 1022.5 hPa 65% 0.0mm
03/08:30pm SE 9-11 kts 17.9°c 1022.5 hPa 66% 0.0mm
03/08:00pm SE 8-11 kts 17.6°c 1022.4 hPa 63% 0.0mm
03/07:30pm SE 8-11 kts 17.7°c 1022.1 hPa 61% 0.0mm
03/07:00pm SE 7-10 kts 17.5°c 1021.8 hPa 62% 0.0mm
03/06:30pm SSE 7-10 kts 17.4°c 1021.4 hPa 58% 0.0mm
03/06:00pm SSE 6-11 kts 17.2°c 1020.9 hPa 57% 0.0mm
03/05:30pm SSE 7-10 kts 17.2°c 1020.7 hPa 60% 0.0mm
03/05:00pm SSE 7-11 kts 17.4°c 1020.5 hPa 56% 0.0mm
03/04:30pm S 6-9 kts 18.0°c 1020.2 hPa 54% 0.0mm
03/04:00pm S 7-10 kts 18.6°c 1020.1 hPa 53% 0.0mm
03/03:30pm S 7-10 kts 19.0°c 1020.0 hPa 51% 0.0mm
03/03:00pm S 8-13 kts 18.9°c 1019.8 hPa 49% 0.0mm
03/02:30pm S 8-13 kts 19.3°c 1019.7 hPa 54% 0.0mm
03/02:00pm S 8-11 kts 19.0°c 1019.8 hPa 50% 0.0mm
03/01:30pm S 11-15 kts 19.1°c 1019.8 hPa 54% 0.0mm
03/01:00pm SSW 11-14 kts 19.0°c 1020.2 hPa 56% 0.0mm
03/12:30pm SSW 11-16 kts 18.8°c 1020.6 hPa 54% 0.0mm
03/12:00pm SSW 13-18 kts 18.1°c 1021.0 hPa 53% 0.0mm
03/11:30am SSW 13-18 kts 17.9°c 1021.5 hPa 56% 0.0mm
03/11:00am SSW 13-18 kts 17.4°c 1021.9 hPa 56% 0.0mm
03/10:30am SSW 14-18 kts 17.1°c 1022.5 hPa 56% 0.0mm
03/10:00am SSW 14-21 kts 16.8°c 1022.5 hPa 58% 0.0mm
03/09:30am SSW 15-21 kts 16.4°c 1022.7 hPa 55% 0.0mm
03/09:00am SSW 15-19 kts 16.3°c 1022.6 hPa 60% 0.2mm
03/08:30am SSW 15-22 kts 15.8°c 1022.4 hPa 58% 0.2mm
03/08:00am SSW 15-22 kts 15.5°c 1022.4 hPa 58% 0.2mm
03/07:30am SSW 16-22 kts 15.3°c 1022.3 hPa 59% 0.2mm
03/07:00am SSW 17-23 kts 15.0°c 1021.8 hPa 60% 0.2mm
03/06:47am SSW 15-25 kts 14.8°c 1021.6 hPa 60% 0.2mm
03/06:30am SSW 17-25 kts 15.0°c 1021.4 hPa 62% 0.2mm
03/06:00am SSW 19-27 kts 15.2°c 1021.4 hPa 59% 0.2mm
03/05:30am SSW 19-26 kts 15.4°c 1020.9 hPa 59% 0.2mm
03/05:20am SSW 18-28 kts 15.3°c 1020.9 hPa 60% 0.2mm
03/05:00am SSW 19-25 kts 15.7°c 1020.8 hPa 60% 0.2mm
03/04:30am SSW 18-25 kts 15.7°c 1020.8 hPa 59% 0.2mm
03/04:00am SSW 19-26 kts 15.8°c 1020.8 hPa 56% 0.2mm
03/03:30am SSW 19-26 kts 16.1°c 1020.8 hPa 57% 0.2mm
03/03:00am SSW 18-25 kts 16.0°c 1020.9 hPa 52% 0.2mm
03/02:30am SSW 18-26 kts 16.1°c 1021.1 hPa 51% 0.2mm
03/02:00am SSW 18-27 kts 16.5°c 1021.1 hPa 52% 0.2mm
03/01:30am SSW 18-24 kts 16.6°c 1021.4 hPa 53% 0.2mm
03/01:00am SSW 18-24 kts 16.9°c 1021.6 hPa 51% 0.2mm
03/12:30am SSW 18-27 kts 17.3°c 1021.4 hPa 50% 0.2mm
03/12:15am SSW 17-27 kts 17.5°c 1021.3 hPa 50% 0.2mm
03/12:00am SSW 18-27 kts 17.8°c 1021.3 hPa 51% 0.2mm